User: anonymous   Login
Location: Holyhead Bay
(53.3667°N, 4.6667°W)
Time: 09:36:59
(UTC+00:00)
Language:

Meteor 1-14 Rocket - Orbit

View from above orbital plane
View from above orbital plane
View from above satellite
View from above satellite

Ground track
Ground track

The orbit data is extracted from the following two-line orbital elements,

1 06393U 73015B   21065.79318701  .00000067  00000-0  33170-4 0  9998
2 06393  81.2529  78.7773 0059533  58.3025 302.3928 14.05032326457501
Epoch (UTC): 06 March 2021 19:02:11
Eccentricity: 0.0059533
inclination: 81.2529°
perigee height: 833 km
apogee height: 919 km
right ascension of ascending node: 78.7773°
argument of perigee: 58.3025°
revolutions per day: 14.05032326
mean anomaly at epoch: 302.3928°
orbit number at epoch: 45750

The dashed part of the orbit path shows where the satellite is in the earth's shadow,  

DLR